Total_Precipitation_Accumulation
0.00 0.00 0.00 0.00 0.00 0.00 0.00 0.00 0.00 0.00 0.00 0.00 0.00 0.00 0.01 0.00 0.01 0.00 0.00 0.00 0.00 0.00 0.00 0.02 0.11 0.08 0.16 0.16 0.74 1.84 1.37 0.83 1.12 1.07 0.57 0.47 0.32 0.94 0.44 0.63 0.82 1.22 1.95 1.38 2.04 1.39 1.78 1.88 2.21 2.02 1.32 1.44 2.28 1.49 1.99 1.53 1.18 1.39 1.13 1.34 1.95 2.03 1.65 2.07 0.61 0.85 1.09 1.04 1.32 1.73 0.75 1.00 0.82 1.12 0.87 1.29 1.05 1.43 1.36 1.64 1.73 1.04 0.83 0.94 0.41 0.52
0.00 0.00 0.00 0.00 0.00 0.00 0.00 0.00 0.00 0.00 0.00 0.00 0.00 0.00 0.00 0.00 0.00 0.00 0.00 0.00 0.00 0.00 0.02 0.05 0.03 0.08 0.09 0.29 1.01 0.48 0.96 0.90 0.56 1.42 1.39 1.54 1.17 0.63 1.11 1.14 1.49 1.30 1.93 1.27 0.86 0.96 1.83 1.23 0.96 0.99 0.98 1.38 1.22 1.22 0.79 1.33 1.01 1.36 1.04 1.64 2.27 2.41 2.32 2.31 1.61 1.06 0.89 1.53 1.41 0.93 0.91 0.73 1.25 1.01 0.81 0.72 1.42 1.07 1.05 1.41 1.15 1.18 0.99 0.59 0.82 0.59
0.00 0.00 0.00 0.00 0.00 0.00 0.00 0.00 0.00 0.00 0.00 0.00 0.00 0.00 0.00 0.00 0.00 0.00 0.00 0.00 0.00 0.00 0.03 0.04 0.05 0.14 0.16 0.26 0.57 0.50 0.53 1.31 1.30 1.91 1.98 1.53 0.94 1.17 0.62 0.94 0.52 0.49 0.41 0.38 0.74 0.92 1.25 1.07 0.70 0.73 0.77 1.00 0.95 0.99 1.25 0.68 0.96 1.22 1.74 1.77 2.35 2.28 2.59 2.24 2.07 2.02 2.41 1.82 1.90 1.68 1.31 0.97 1.63 1.76 2.02 1.56 1.16 1.10 0.88 0.63 1.19 0.87 0.36 0.36 0.53 0.57
0.00 0.00 0.00 0.00 0.00 0.00 0.00 0.00 0.00 0.00 0.00 0.00 0.00 0.00 0.00 0.00 0.00 0.00 0.00 0.00 0.00 0.00 0.02 0.03 0.04 0.15 0.16 0.24 0.32 0.16 0.32 0.46 1.05 0.57 1.02 2.03 0.86 0.80 1.14 0.61 1.15 0.60 0.72 1.10 0.93 0.75 0.75 0.61 1.02 0.97 0.68 0.88 0.94 1.77 1.20 1.55 1.72 2.57 2.56 1.67 1.45 1.87 1.67 1.62 2.10 2.62 2.44 1.81 1.31 1.44 1.89 2.72 1.96 1.94 1.15 0.92 1.36 1.00 1.43 1.34 1.64 0.70 0.68 0.58 0.45 0.69
0.00 0.00 0.00 0.00 0.00 0.00 0.00 0.00 0.00 0.00 0.00 0.00 0.00 0.00 0.00 0.00 0.00 0.00 0.04 0.00 0.00 0.00 0.00 0.03 0.12 0.15 0.17 0.22 0.21 0.20 0.12 0.11 0.25 0.22 0.61 0.64 0.73 0.75 0.87 0.56 0.61 0.49 0.42 0.54 0.53 1.05 0.66 0.54 0.78 1.11 0.80 0.97 1.36 0.73 1.29 1.85 2.02 2.40 1.54 1.44 1.43 1.66 1.63 1.43 2.03 1.28 1.67 1.93 1.69 1.57 1.83 2.21 1.32 1.22 1.39 1.50 1.29 0.81 1.04 1.29 1.14 0.57 0.27 0.21 0.24 1.10
0.00 0.01 0.00 0.00 0.00 0.00 0.00 0.00 0.00 0.00 0.00 0.00 0.00 0.00 0.00 0.00 0.00 0.00 0.00 0.01 0.01 0.03 0.10 0.05 0.21 0.25 0.26 0.30 0.23 0.33 0.30 0.24 0.25 0.34 0.47 0.46 0.64 0.40 0.82 0.80 0.49 0.36 0.63 0.94 0.53 0.62 0.73 0.59 0.90 0.85 1.22 1.79 2.07 1.56 1.10 1.26 1.59 1.94 1.32 1.45 1.36 1.64 1.25 1.16 1.90 1.37 1.45 1.42 1.10 1.32 1.18 0.95 0.79 1.11 1.22 1.76 0.90 0.71 0.58 0.50 0.35 0.52 0.30 0.30 0.25 0.54
0.00 0.00 0.00 0.00 0.00 0.00 0.00 0.00 0.00 0.00 0.00 0.00 0.00 0.00 0.00 0.00 0.00 0.00 0.01 0.01 0.02 0.01 0.06 0.00 0.06 0.17 0.19 0.22 0.21 0.35 0.29 0.37 0.39 0.48 0.67 0.58 0.42 0.43 0.73 0.90 0.86 0.62 0.47 0.54 0.51 0.43 0.78 1.14 0.94 0.43 1.01 1.93 1.32 1.51 1.12 1.11 1.81 0.89 0.66 1.25 1.62 2.35 1.11 1.54 1.14 0.94 0.86 1.00 0.94 0.82 0.92 1.22 1.05 0.77 1.59 0.98 0.88 0.53 0.54 0.41 0.47 0.55 0.91 0.71 0.72 0.78
0.00 0.00 0.00 0.00 0.00 0.00 0.00 0.00 0.00 0.00 0.00 0.00 0.00 0.00 0.00 0.00 0.00 0.00 0.01 0.00 0.02 0.00 0.00 0.00 0.01 0.12 0.27 0.09 0.07 0.20 0.29 0.24 0.52 0.53 0.31 0.41 0.37 0.41 0.63 1.13 1.07 0.36 0.51 0.60 0.41 0.95 1.25 0.96 0.74 0.62 1.06 1.41 1.56 1.62 0.97 1.53 1.62 1.30 0.79 0.68 1.51 1.14 1.43 1.23 0.97 0.64 0.44 0.91 1.03 1.03 1.02 1.38 1.40 1.11 1.42 0.50 0.48 0.58 0.39 0.61 0.59 1.00 1.42 0.87 1.02 1.05
0.00 0.00 0.00 0.00 0.00 0.00 0.00 0.00 0.00 0.00 0.00 0.00 0.00 0.00 0.00 0.00 0.00 0.00 0.00 0.01 0.01 0.04 0.06 0.03 0.02 0.08 0.11 0.12 0.07 0.25 0.35 0.25 0.43 0.34 0.24 0.35 0.47 0.71 0.65 0.67 0.70 0.91 0.89 1.06 1.70 0.94 1.52 0.74 1.50 1.17 0.67 0.98 1.06 0.99 1.25 2.00 2.75 1.49 1.15 1.11 1.41 1.23 1.30 0.76 0.91 0.93 1.20 1.38 1.28 1.26 1.62 1.42 1.38 1.10 0.98 0.49 0.18 0.19 0.28 0.39 0.97 0.94 1.77 1.69 1.50 1.41
0.00 0.00 0.00 0.00 0.00 0.00 0.00 0.00 0.00 0.00 0.00 0.00 0.00 0.00 0.00 0.00 0.00 0.00 0.00 0.01 0.02 0.01 0.04 0.03 0.03 0.04 0.21 0.09 0.19 0.22 0.16 0.16 0.24 0.26 0.47 0.59 1.11 0.54 0.69 0.38 0.38 0.55 0.31 0.47 0.57 0.72 0.89 1.59 1.33 0.74 0.34 0.70 1.21 2.59 2.36 2.87 2.78 1.49 1.22 1.19 0.62 1.03 1.17 1.24 1.20 0.68 0.92 0.73 1.52 1.72 1.86 1.43 1.36 1.45 0.50 0.49 0.56 0.41 0.67 0.40 1.18 1.34 0.78 0.97 0.76 0.82
0.00 0.00 0.00 0.00 0.00 0.00 0.00 0.00 0.00 0.00 0.00 0.00 0.00 0.00 0.00 0.00 0.00 0.00 0.00 0.01 0.11 0.02 0.01 0.03 0.01 0.02 0.22 0.17 0.13 0.16 0.16 0.12 0.19 0.23 0.21 0.27 0.36 0.51 0.60 0.93 0.83 0.30 0.33 0.44 0.75 0.80 1.43 1.83 1.32 0.71 0.79 1.36 1.72 2.58 2.46 3.27 1.46 1.24 1.09 1.35 1.19 0.70 1.04 1.19 0.99 0.58 0.79 0.97 0.80 1.25 1.32 1.66 1.47 0.63 0.68 0.71 0.43 0.55 0.85 0.43 0.66 0.70 0.56 0.43 0.49 0.48
0.00 0.00 0.00 0.00 0.00 0.00 0.00 0.00 0.00 0.00 0.00 0.00 0.00 0.00 0.00 0.00 0.00 0.00 0.01 0.02 0.05 0.00 0.02 0.03 0.03 0.06 0.17 0.29 0.22 0.13 0.07 0.10 0.12 0.12 0.16 0.13 0.23 0.32 0.20 0.25 0.22 0.27 0.31 0.40 0.51 0.88 1.40 0.77 0.79 0.64 0.87 1.33 3.06 3.18 2.96 1.65 1.13 1.19 1.05 1.02 0.86 0.78 0.44 0.79 1.21 1.03 1.06 1.58 1.01 1.72 1.71 1.06 0.92 0.70 0.45 0.46 0.27 0.30 0.41 0.40 0.60 0.33 0.28 0.42 0.67 1.29
0.00 0.00 0.00 0.00 0.00 0.00 0.00 0.00 0.00 0.00 0.00 0.00 0.00 0.00 0.01 0.08 0.00 0.04 0.01 0.00 0.00 0.02 0.01 0.01 0.02 0.06 0.08 0.23 0.53 0.15 0.11 0.08 0.07 0.10 0.18 0.12 0.13 0.13 0.08 0.12 0.54 0.27 0.43 0.65 0.66 0.78 0.93 0.93 0.84 1.08 1.83 1.06 0.80 2.44 2.18 1.48 1.53 0.91 1.03 1.18 1.34 1.46 0.85 1.42 1.36 1.19 1.66 1.95 1.70 2.46 1.39 0.58 0.57 0.36 0.36 0.26 0.27 0.92 0.63 0.56 0.61 0.48 0.54 0.37 0.64 0.45
0.01 0.00 0.00 0.00 0.00 0.00 0.00 0.00 0.01 0.00 0.00 0.00 0.00 0.00 0.02 0.08 0.04 0.01 0.05 0.01 0.04 0.02 0.01 0.01 0.02 0.08 0.28 0.22 0.25 0.14 0.12 0.06 0.04 0.06 0.12 0.07 0.06 0.08 0.08 0.10 0.17 0.19 0.48 0.56 0.77 0.67 0.76 0.62 1.27 1.00 0.79 0.69 0.92 1.82 2.01 1.13 1.03 1.62 1.17 1.04 1.58 1.47 0.92 1.82 1.80 1.20 0.78 2.00 2.34 1.34 0.55 0.37 0.34 0.27 0.31 0.61 0.21 0.18 0.28 0.58 0.24 0.38 0.24 0.30 0.43 0.76
0.01 0.07 0.01 0.00 0.00 0.00 0.00 0.00 0.00 0.01 0.00 0.00 0.00 0.00 0.02 0.07 0.02 0.01 0.03 0.06 0.06 0.10 0.06 0.01 0.01 0.11 0.12 1.31 0.27 0.10 0.10 0.04 0.03 0.11 0.05 0.09 0.09 0.16 0.09 0.19 0.19 0.26 0.17 0.25 0.32 0.48 1.05 1.30 1.17 0.89 1.14 0.92 0.68 1.61 1.26 0.73 0.76 0.68 0.67 1.08 1.51 1.66 1.45 1.46 1.94 0.87 1.43 1.64 0.90 1.24 0.86 0.52 0.24 0.28 0.33 0.46 0.34 0.38 0.13 0.23 0.67 0.27 0.24 0.40 0.57 0.75
0.01 0.06 0.02 0.00 0.00 0.00 0.00 0.00 0.00 0.00 0.00 0.00 0.00 0.01 0.00 0.03 0.00 0.03 0.18 0.02 0.19 0.08 0.03 0.06 0.10 0.27 0.48 0.85 0.94 0.65 0.07 0.01 0.05 0.07 0.04 0.06 0.08 0.10 0.15 0.16 0.21 0.21 0.20 0.39 0.56 1.10 1.25 1.25 1.22 1.04 0.87 0.86 0.74 0.81 0.65 0.46 0.54 0.90 0.89 1.07 1.65 2.17 2.25 2.07 1.95 2.13 2.53 1.62 0.47 0.31 0.17 0.22 0.39 0.45 0.30 0.29 0.41 0.41 0.16 0.32 0.26 0.66 0.36 0.82 0.22 0.15
0.00 0.09 0.00 0.01 0.00 0.00 0.00 0.00 0.00 0.00 0.14 0.06 0.00 0.01 0.00 0.00 0.02 0.00 0.00 0.00 0.00 0.00 0.03 0.02 0.21 0.35 0.20 0.46 0.68 0.56 0.05 0.07 0.14 0.07 0.05 0.27 0.39 0.52 0.62 0.84 0.92 0.88 0.79 0.98 1.31 1.35 1.18 1.23 1.06 1.09 0.55 0.41 0.35 0.45 0.42 0.69 1.10 1.00 1.03 0.82 0.74 0.86 0.81 1.86 1.45 1.25 2.00 1.46 0.92 0.89 0.42 0.32 0.29 0.26 0.11 0.15 0.08 0.23 0.41 0.45 0.49 0.31 0.26 0.62 0.71 0.57
0.04 0.21 0.00 0.00 0.01 0.00 0.00 0.00 0.00 0.00 0.00 0.00 0.01 0.05 0.00 0.00 0.01 0.02 0.04 0.01 0.00 0.00 0.15 0.03 0.12 0.39 0.11 0.73 0.67 0.52 0.36 0.25 0.22 0.25 0.42 0.44 0.54 0.62 0.79 0.75 0.87 1.01 1.08 0.83 0.95 0.79 0.76 0.65 0.91 0.91 0.59 0.82 0.47 0.48 0.36 0.50 0.82 0.76 1.14 1.11 0.73 1.08 1.40 1.34 1.26 0.87 0.82 0.95 1.30 0.78 0.41 0.39 0.26 0.25 0.18 0.18 0.11 0.22 0.64 0.44 0.86 0.49 0.54 0.23 0.23 0.38
0.00 0.09 0.01 0.00 0.00 0.01 0.00 0.00 0.00 0.00 0.00 0.00 0.06 0.00 0.01 0.03 0.02 0.02 0.01 0.02 0.01 0.00 0.11 0.08 0.10 0.18 0.26 0.60 0.42 0.61 0.55 0.35 0.27 0.25 0.18 0.16 0.14 0.37 0.72 0.98 0.93 0.56 0.59 0.55 0.72 0.70 0.44 0.55 0.50 0.65 0.57 0.46 0.65 1.07 0.56 0.54 0.50 0.32 0.33 0.45 0.39 1.21 1.77 1.90 1.87 1.51 1.95 1.19 1.78 0.96 0.53 0.49 0.34 0.67 0.64 0.43 0.44 0.72 0.65 0.40 0.54 0.34 0.24 0.51 0.51 0.36
0.00 0.03 0.04 0.00 0.00 0.01 0.00 0.00 0.02 0.01 0.00 0.00 0.00 0.00 0.00 0.00 0.09 0.05 0.00 0.12 0.00 0.11 0.01 0.27 0.06 0.13 0.23 0.38 0.28 0.33 0.29 0.42 0.27 0.22 0.34 0.36 0.47 0.33 0.35 0.26 0.40 0.42 0.58 0.65 0.72 0.74 0.65 0.57 0.90 0.78 0.71 0.70 0.75 0.40 0.36 0.77 1.28 1.05 0.99 0.43 0.46 0.78 1.95 0.62 0.41 1.43 1.29 0.88 0.52 0.77 0.70 0.61 0.44 0.24 0.35 0.59 0.44 0.45 0.44 0.13 0.24 0.31 0.51 0.35 0.51 0.40
0.03 0.00 0.14 0.07 0.01 0.00 0.07 0.00 0.01 0.00 0.02 0.00 0.00 0.00 0.00 0.00 0.02 0.00 0.09 0.05 0.04 0.07 0.09 0.10 0.23 0.50 0.44 0.35 0.23 0.39 0.23 0.16 0.46 0.43 0.32 0.48 0.53 0.70 0.61 0.36 0.41 0.44 0.47 0.43 0.64 0.51 0.83 0.76 0.79 0.79 0.73 0.81 0.82 0.68 1.38 1.55 1.46 1.50 1.42 1.08 1.54 1.31 1.03 1.32 1.04 1.14 1.06 1.02 0.67 0.50 0.60 0.54 0.34 0.16 0.28 0.61 0.51 0.21 0.09 0.37 0.30 0.49 0.17 0.34 0.26 0.22
0.00 0.01 0.03 0.07 0.13 0.03 0.03 0.00 0.01 0.00 0.00 0.00 0.00 0.00 0.00 0.01 0.01 0.03 0.03 0.00 0.02 0.02 0.13 0.11 0.19 0.34 0.61 0.32 0.65 0.37 0.13 0.47 0.43 0.54 0.60 0.51 0.46 0.34 0.31 0.48 0.38 0.56 0.41 0.32 0.26 0.54 0.54 0.63 1.04 0.90 0.87 0.84 0.70 0.74 0.75 0.85 0.69 0.64 1.03 1.65 1.58 1.88 1.73 1.43 1.40 1.04 1.56 0.91 1.20 0.73 0.90 0.23 0.45 0.14 0.08 0.22 0.75 0.44 0.49 0.26 0.36 0.44 0.33 0.28 0.51 0.24
0.05 0.10 0.12 0.05 0.08 0.36 0.03 0.05 0.00 0.00 0.00 0.00 0.02 0.05 0.00 0.00 0.00 0.04 0.04 0.14 0.04 0.03 0.03 0.22 0.21 0.52 0.51 0.58 0.33 0.37 0.11 0.09 0.40 0.54 1.04 0.53 0.59 0.30 0.22 0.23 0.60 0.51 0.47 0.42 0.48 0.52 1.13 0.69 0.80 0.78 0.84 1.09 0.88 0.78 0.81 0.86 1.32 1.79 1.56 2.26 2.58 2.32 2.64 2.46 2.36 2.38 1.41 1.04 0.60 0.72 0.55 0.36 0.33 0.16 0.06 0.07 0.06 0.28 0.49 0.57 0.26 0.42 0.24 0.22 0.37 0.53
0.00 0.04 0.11 0.11 0.07 0.10 0.12 0.01 0.00 0.00 0.00 0.01 0.01 0.01 0.01 0.08 0.01 0.06 0.08 0.16 0.18 0.17 0.14 0.12 0.06 0.88 0.66 0.77 0.48 0.26 0.22 0.16 0.25 0.81 0.46 0.82 0.70 0.52 0.30 0.20 0.20 0.33 0.40 0.40 0.49 1.09 1.11 1.12 0.70 0.92 0.54 0.59 0.31 0.83 1.19 1.75 1.81 1.78 2.30 1.64 2.27 2.11 1.38 1.68 1.43 1.34 1.48 1.86 1.31 0.73 0.70 0.60 0.44 0.21 0.14 0.09 0.07 0.23 0.57 0.47 0.45 0.26 0.12 0.13 0.56 0.75
0.22 0.24 0.10 0.36 0.22 0.27 0.26 0.10 0.06 0.01 0.00 0.04 0.14 0.06 0.07 0.05 0.03 0.03 0.05 0.06 0.06 0.12 0.19 0.10 0.40 0.40 0.69 0.48 0.28 0.44 0.21 0.62 0.67 0.69 0.80 0.74 0.87 0.51 0.30 0.15 0.12 0.18 0.59 0.43 0.72 0.98 0.78 0.65 0.57 0.52 0.49 0.47 0.63 0.88 1.35 2.06 2.34 1.62 1.50 1.92 2.10 1.50 1.17 1.33 1.42 1.18 1.58 1.66 1.43 1.15 1.07 0.86 0.76 0.29 0.41 0.65 0.50 0.37 0.44 0.49 0.26 0.17 0.23 0.17 0.22 0.21
0.14 0.37 0.21 0.29 0.34 0.42 0.39 0.31 0.32 0.20 0.19 0.14 0.07 0.05 0.11 0.01 0.02 0.05 0.03 0.06 0.04 0.12 0.12 0.17 0.15 0.48 0.59 0.31 0.37 0.74 0.77 0.81 0.88 0.60 0.61 0.73 0.60 0.58 0.87 0.27 0.69 0.43 0.35 0.43 0.44 0.71 1.10 0.90 0.83 0.76 0.84 0.74 0.86 0.93 1.03 0.89 1.11 0.92 0.85 1.31 1.09 2.49 1.59 1.52 1.75 1.62 1.17 1.36 1.87 1.64 1.44 1.15 1.20 1.12 0.74 0.54 0.86 0.98 0.69 0.71 0.39 0.36 0.16 0.16 0.17 0.09
0.16 0.14 0.17 0.30 0.33 0.33 0.52 0.30 0.24 0.04 0.07 0.23 0.23 0.13 0.12 0.10 0.10 0.12 0.10 0.06 0.15 0.15 0.11 0.34 0.28 0.51 0.52 0.49 0.25 0.29 0.35 0.26 0.35 0.35 0.62 0.52 0.71 0.41 0.59 1.11 0.80 0.99 1.05 1.11 0.86 0.81 0.87 0.97 0.73 0.86 1.08 1.45 1.55 2.50 2.83 2.40 1.96 1.58 1.31 2.33 1.55 1.40 2.28 2.47 1.83 1.15 1.19 1.40 1.46 1.89 1.42 1.02 0.71 1.02 0.89 1.01 1.07 0.81 0.62 0.62 0.60 0.42 0.22 0.27 0.31 0.45
0.10 0.09 0.13 0.16 0.20 0.19 0.20 0.19 0.19 0.07 0.17 0.08 0.05 0.19 0.07 0.03 0.08 0.04 0.05 0.13 0.26 0.05 0.36 0.41 0.31 0.20 0.47 0.31 0.31 0.25 0.28 0.12 0.12 0.17 0.11 0.12 0.32 0.76 1.15 0.46 0.41 0.34 0.51 0.54 0.44 0.53 0.99 1.40 1.12 1.21 1.04 1.41 1.57 2.14 1.59 0.90 0.71 1.42 2.16 2.19 1.77 1.66 1.20 0.90 1.30 1.62 1.79 1.67 1.65 1.51 1.63 1.87 1.63 1.74 1.09 1.01 1.09 1.09 0.81 0.59 0.53 1.13 1.05 0.75 0.35 0.60
0.37 0.23 0.17 0.08 0.14 0.19 0.18 0.14 0.17 0.26 0.16 0.11 0.06 0.04 0.22 0.04 0.02 0.12 0.09 0.10 0.16 0.09 0.42 0.47 0.42 0.24 0.31 0.29 0.33 0.54 0.21 0.09 0.09 0.11 0.12 0.09 0.09 0.15 0.41 0.48 0.59 0.64 0.81 0.59 0.44 0.29 0.30 0.44 0.58 0.81 1.37 1.36 2.07 2.41 0.98 0.83 1.02 1.31 0.99 0.96 1.20 1.16 1.09 1.14 2.29 2.56 1.41 1.22 2.11 2.56 2.79 2.56 2.35 1.90 1.07 1.02 0.87 0.90 0.92 0.56 0.59 0.88 1.53 1.04 0.87 0.78
0.06 0.21 0.80 0.27 0.18 0.26 0.24 0.16 0.14 0.15 0.22 0.14 0.09 0.08 0.11 0.08 0.11 0.07 0.10 0.10 0.09 0.17 0.19 0.18 0.13 0.13 0.20 0.23 0.33 0.46 0.30 0.09 0.06 0.05 0.05 0.04 0.07 0.08 0.13 0.14 0.42 0.41 0.31 0.30 0.37 0.37 0.32 0.20 0.24 0.40 1.06 1.51 1.15 1.40 0.59 1.01 1.17 0.62 1.22 1.32 1.47 0.77 1.11 2.64 1.77 1.15 1.75 2.28 1.78 1.75 1.87 1.80 1.81 1.43 1.01 0.66 0.50 0.27 0.32 0.32 0.37 0.36 0.43 0.31 0.48 0.41
0.11 0.38 0.10 0.27 0.31 0.34 0.26 0.15 0.14 0.10 0.16 0.31 0.12 0.09 0.12 0.08 0.16 0.12 0.08 0.09 0.02 0.21 0.21 0.07 0.08 0.17 0.41 0.26 0.43 0.66 0.29 0.06 0.06 0.31 0.07 0.07 0.07 0.04 0.09 0.09 0.13 0.25 0.36 0.30 0.33 0.35 0.36 0.34 0.18 0.19 0.40 0.74 0.82 0.86 0.61 0.45 1.21 0.65 0.83 1.39 1.23 0.91 0.99 1.27 1.52 1.98 2.16 2.69 1.82 1.53 1.01 1.03 0.94 1.04 0.92 0.53 0.28 0.32 0.26 0.22 0.42 0.86 0.48 0.74 0.38 0.35
0.14 0.30 0.10 0.30 0.54 0.42 0.29 0.31 0.52 0.29 0.29 0.44 0.64 0.39 0.35 0.12 0.14 0.14 0.11 0.21 0.06 0.39 0.60 0.35 0.21 0.32 0.36 0.11 0.60 0.31 0.26 0.09 0.15 0.33 0.42 0.46 0.41 0.43 0.38 0.33 0.11 0.12 0.23 0.41 0.44 0.43 0.51 0.42 0.34 0.36 0.24 0.33 0.47 0.64 0.69 0.58 0.95 0.90 0.81 1.09 1.23 1.93 2.63 1.46 1.99 1.97 1.89 1.46 1.77 2.58 1.79 1.84 1.58 1.50 1.34 0.83 0.56 1.19 0.36 0.18 0.83 0.55 0.38 0.30 0.24 0.36
0.50 0.28 0.37 0.49 0.24 0.38 0.52 0.33 0.45 0.42 0.48 0.55 0.29 0.19 0.21 0.29 0.25 0.25 0.14 0.07 0.28 0.36 0.56 0.28 0.49 0.24 0.21 0.08 0.11 0.40 0.22 0.23 0.51 0.30 0.44 0.42 0.31 0.34 0.26 0.16 0.13 0.13 0.22 0.15 0.25 0.29 0.39 0.44 0.43 0.42 0.42 0.34 0.30 0.47 0.83 1.02 1.48 1.22 1.08 0.85 0.91 1.13 1.43 1.33 2.05 2.36 1.91 2.30 2.10 2.47 1.95 1.39 1.25 1.75 1.21 1.22 0.66 0.86 2.59 1.42 0.70 0.66 0.35 0.21 0.10 0.13
0.19 0.31 0.29 0.47 0.35 0.57 0.37 0.43 0.46 0.63 0.74 0.61 0.45 0.22 0.16 0.23 0.24 0.29 0.24 0.18 0.11 0.04 0.36 0.35 0.41 0.24 0.10 0.22 0.10 0.11 0.38 0.34 0.25 0.40 0.43 0.42 0.39 0.28 0.34 0.27 0.09 0.06 0.16 0.21 0.96 0.47 0.31 0.39 0.29 0.34 0.40 0.43 0.48 0.51 0.57 0.65 0.77 1.11 1.08 1.53 1.26 0.78 1.15 1.50 1.35 1.54 1.74 1.86 1.58 1.39 1.57 1.49 2.02 1.54 1.55 1.09 0.79 1.10 0.80 0.37 0.44 0.97 0.51 0.44 0.51 0.20
0.20 0.21 0.16 0.51 0.37 0.46 0.44 0.66 0.54 0.85 0.58 0.49 0.33 0.17 0.18 0.18 0.13 0.24 0.26 0.18 0.16 0.12 0.31 0.24 0.23 0.22 0.35 0.15 0.22 0.26 0.34 0.27 0.37 0.36 0.41 0.43 0.37 0.31 0.21 0.32 0.38 0.48 0.37 0.29 0.39 0.66 0.47 0.59 0.51 0.59 0.76 0.53 0.46 0.42 0.45 0.62 0.67 0.91 0.94 0.89 1.02 1.21 1.21 1.23 1.48 1.13 1.12 1.50 1.81 1.56 1.14 1.37 1.39 1.70 1.60 1.42 1.50 1.82 1.92 0.96 1.20 0.84 0.55 0.88 0.49 0.63
0.11 0.12 0.18 0.15 0.24 0.50 0.74 0.95 0.45 0.51 0.54 0.41 0.50 0.32 0.11 0.12 0.32 0.15 0.21 0.17 0.26 0.28 0.23 0.35 0.25 0.14 0.16 0.21 0.23 0.35 0.33 0.70 0.22 0.21 0.30 0.27 0.21 0.20 0.15 0.12 0.17 0.21 0.33 0.22 0.25 0.53 0.79 0.60 0.87 1.26 1.09 0.80 0.76 0.82 0.59 0.49 0.59 0.65 0.98 0.87 0.90 1.18 1.26 1.53 1.51 1.31 1.15 1.19 1.27 1.38 1.34 1.46 1.17 1.53 1.86 1.26 1.29 1.52 1.46 1.28 1.46 1.21 1.12 0.69 0.78 0.49
0.10 0.28 0.19 0.50 0.22 0.48 0.66 0.62 0.71 1.01 0.52 0.37 0.26 0.18 0.26 0.39 0.26 0.09 0.20 0.23 0.15 0.25 0.22 0.36 0.45 0.40 0.12 0.17 0.23 0.42 0.39 0.27 0.40 0.49 0.57 0.40 0.28 0.21 0.13 0.14 0.07 0.15 0.14 0.35 0.53 0.35 0.19 0.42 0.73 0.86 0.92 0.91 1.14 0.77 0.79 0.70 0.73 0.60 0.52 0.96 0.94 0.77 0.88 0.99 1.43 1.83 1.99 1.66 1.32 1.30 1.20 1.44 1.34 2.25 1.60 1.88 1.14 1.08 1.51 1.49 1.31 1.07 0.78 0.70 0.66 0.41
0.16 0.39 0.35 0.26 0.47 0.14 0.54 0.58 0.76 0.87 0.54 0.61 0.33 0.34 0.17 0.20 0.17 0.39 0.13 0.19 0.12 0.12 0.14 0.23 0.52 0.98 0.72 0.37 0.38 0.48 0.41 0.41 0.31 0.41 0.46 0.42 0.32 0.23 0.12 0.09 0.12 0.17 0.27 0.41 0.28 0.40 0.78 1.14 1.05 0.76 0.93 0.91 0.69 0.83 0.91 0.90 0.91 0.73 0.93 1.03 1.12 1.61 1.44 0.85 0.98 1.20 1.70 1.82 1.83 1.91 1.52 1.40 1.73 1.12 1.56 1.58 1.52 1.04 1.04 1.39 1.23 1.50 1.19 1.20 0.97 0.81
0.26 0.25 0.34 0.20 0.54 0.13 0.27 0.47 0.46 0.39 0.46 0.21 0.36 0.32 0.43 0.33 0.22 0.26 0.17 0.56 0.29 0.19 0.11 0.10 0.18 0.36 0.53 0.66 0.61 0.55 0.64 0.55 0.54 0.51 0.47 0.39 0.37 0.27 0.16 0.11 0.07 0.03 0.03 0.05 0.11 0.12 0.13 0.19 0.22 0.33 0.43 0.51 0.63 0.40 0.26 0.35 0.40 0.46 0.53 0.43 0.62 0.77 0.80 0.98 1.44 1.29 1.45 1.62 1.86 1.73 1.80 1.77 2.12 1.57 1.11 1.39 1.40 1.33 1.08 0.95 0.94 1.29 1.42 1.21 1.20 1.13
0.36 0.48 0.66 0.22 0.31 0.14 0.24 0.25 0.75 0.52 0.43 0.19 0.15 0.23 0.19 0.31 0.61 0.68 0.44 0.40 0.32 0.32 0.23 0.21 0.16 0.23 0.49 0.82 0.97 0.83 0.65 1.31 0.67 0.64 0.45 0.25 0.22 0.14 0.12 0.08 0.04 0.02 0.04 0.01 0.01 0.05 0.04 0.05 0.05 0.04 0.07 0.13 0.14 0.08 0.17 0.08 0.08 0.09 0.11 0.09 0.15 0.28 0.28 0.29 0.36 0.51 0.94 1.20 1.43 1.79 1.71 1.57 1.64 2.06 2.41 2.40 3.02 2.78 1.96 1.18 1.08 1.29 1.22 1.41 1.38 1.46
0.33 0.57 0.15 0.60 0.51 0.50 0.16 0.25 0.21 0.22 0.14 0.16 0.13 0.07 0.06 0.13 0.23 0.36 0.51 0.56 0.35 0.31 0.29 0.27 0.28 0.24 0.23 0.44 0.74 1.10 1.01 1.02 0.99 0.74 0.43 0.23 0.12 0.07 0.05 0.05 0.03 0.01 0.01 0.01 0.02 0.01 0.01 0.02 0.01 0.01 0.03 0.04 0.02 0.02 0.04 0.03 0.02 0.01 0.03 0.11 0.10 0.17 0.17 0.27 0.27 0.34 0.42 0.53 0.71 1.16 1.64 1.76 1.48 1.69 1.57 1.76 2.01 2.03 2.05 2.33 2.40 1.99 1.64 1.76 1.72 1.27
0.21 0.18 0.47 0.27 0.60 0.49 0.45 0.40 0.32 0.31 0.29 0.08 0.04 0.05 0.24 0.14 0.50 0.26 0.53 0.25 0.36 0.26 0.25 0.28 0.32 0.42 0.44 0.46 0.41 0.48 0.73 0.75 0.74 0.56 0.46 0.30 0.19 0.14 0.10 0.08 0.06 0.04 0.02 0.01 0.01 0.01 0.01 0.01 0.01 0.03 0.00 0.00 0.02 0.01 0.00 0.00 0.03 0.00 0.01 0.02 0.05 0.08 0.16 0.15 0.14 0.17 0.24 0.33 0.35 0.42 0.66 1.27 1.57 1.60 1.59 1.61 1.64 1.61 1.66 1.77 1.82 1.66 1.50 1.46 1.46 1.57
0.24 0.27 0.46 0.53 0.20 0.30 0.51 0.48 0.51 0.53 0.42 0.02 0.10 0.03 0.15 0.23 0.24 0.26 0.15 0.20 0.22 0.26 0.30 0.40 0.49 0.44 0.38 0.43 0.38 0.35 0.36 0.44 0.46 0.40 0.33 0.30 0.26 0.25 0.23 0.19 0.15 0.12 0.09 0.06 0.03 0.02 0.02 0.01 0.01 0.00 0.04 0.01 0.00 0.00 0.01 0.01 0.01 0.01 0.00 0.01 0.02 0.05 0.06 0.06 0.08 0.09 0.10 0.13 0.22 0.29 0.38 0.42 0.76 1.32 1.59 1.56 1.50 1.65 1.69 1.55 1.49 1.50 1.61 1.63 1.51 1.41
0.31 0.27 0.31 0.27 0.38 0.25 0.32 0.30 0.44 0.51 0.35 0.13 0.05 0.16 0.22 0.06 0.14 0.18 0.11 0.27 0.25 0.33 0.35 0.37 0.39 0.40 0.39 0.34 0.29 0.30 0.27 0.28 0.30 0.29 0.26 0.23 0.20 0.17 0.14 0.13 0.13 0.14 0.13 0.10 0.07 0.06 0.04 0.03 0.02 0.01 0.01 0.01 0.02 0.01 0.00 0.00 0.00 0.00 0.00 0.00 0.02 0.01 0.02 0.04 0.03 0.04 0.06 0.07 0.05 0.07 0.10 0.17 0.25 0.39 0.70 1.14 1.45 1.45 1.53 1.61 1.67 1.63 1.54 1.44 1.50 1.47
0.21 0.16 0.25 0.38 0.36 0.43 0.32 0.36 0.32 0.26 0.24 0.17 0.11 0.10 0.14 0.13 0.07 0.12 0.09 0.17 0.50 0.54 0.32 0.30 0.35 0.37 0.43 0.37 0.28 0.23 0.21 0.21 0.23 0.22 0.23 0.21 0.21 0.20 0.18 0.15 0.13 0.12 0.13 0.13 0.10 0.08 0.05 0.04 0.03 0.02 0.01 0.01 0.00 0.01 0.01 0.01 0.01 0.01 0.00 0.02 0.01 0.01 0.01 0.02 0.03 0.04 0.16 0.04 0.06 0.04 0.03 0.03 0.04 0.08 0.17 0.33 0.53 0.92 1.30 1.53 1.51 1.53 1.57 1.53 1.52 1.44
0.14 0.05 0.12 0.10 0.24 0.19 0.21 0.26 0.26 0.13 0.12 0.13 0.12 0.15 0.15 0.12 0.15 0.13 0.08 0.24 0.23 0.41 0.37 0.31 0.33 0.32 0.35 0.36 0.32 0.25 0.21 0.16 0.12 0.13 0.15 0.18 0.21 0.19 0.19 0.18 0.20 0.21 0.14 0.10 0.08 0.06 0.04 0.03 0.02 0.02 0.02 0.01 0.00 0.00 0.00 0.00 0.00 0.01 0.02 0.01 0.02 0.01 0.00 0.01 0.00 0.01 0.03 0.03 0.03 0.05 0.16 0.16 0.02 0.05 0.04 0.07 0.12 0.23 0.41 0.72 1.02 1.27 1.51 1.48 1.43 1.40
0.13 0.06 0.07 0.10 0.15 0.13 0.44 0.37 0.16 0.26 0.10 0.06 0.09 0.11 0.10 0.09 0.14 0.14 0.17 0.16 0.22 0.35 0.36 0.34 0.36 0.33 0.32 0.32 0.35 0.32 0.27 0.21 0.18 0.15 0.13 0.10 0.11 0.15 0.17 0.19 0.25 0.21 0.17 0.23 0.07 0.04 0.02 0.02 0.01 0.02 0.01 0.01 0.00 0.00 0.00 0.00 0.00 0.00 0.00 0.00 0.01 0.01 0.01 0.00 0.01 0.00 0.00 0.01 0.01 0.02 0.11 0.02 0.10 0.40 0.34 0.05 0.32 0.09 0.20 0.17 0.31 0.49 0.69 0.87 1.04 1.22
0.17 0.02 0.06 0.05 0.06 0.08 0.27 0.21 0.06 0.04 0.07 0.05 0.04 0.08 0.05 0.04 0.07 0.12 0.09 0.06 0.05 0.10 0.19 0.25 0.24 0.25 0.23 0.27 0.29 0.29 0.26 0.22 0.21 0.17 0.16 0.12 0.10 0.08 0.11 0.10 0.09 0.08 0.07 0.03 0.02 0.01 0.01 0.00 0.00 0.01 0.00 0.00 0.00 0.00 0.00 0.00 0.00 0.00 0.00 0.00 0.00 0.01 0.01 0.01 0.00 0.00 0.00 0.00 0.00 0.01 0.01 0.01 0.00 0.01 0.06 0.07 0.07 0.12 0.64 0.22 0.29 0.32 0.26 0.60 0.54 0.83
0.12 0.05 0.07 0.06 0.08 0.16 0.06 0.08 0.08 0.07 0.02 0.02 0.01 0.03 0.02 0.02 0.03 0.05 0.04 0.03 0.01 0.02 0.04 0.07 0.10 0.13 0.13 0.14 0.12 0.12 0.12 0.11 0.10 0.13 0.12 0.11 0.09 0.08 0.08 0.18 0.13 0.14 0.07 0.14 0.17 0.06 0.01 0.01 0.00 0.00 0.00 0.00 0.00 0.00 0.00 0.00 0.00 0.00 0.00 0.00 0.00 0.00 0.00 0.01 0.02 0.00 0.00 0.00 0.00 0.00 0.00 0.00 0.00 0.01 0.01 0.01 0.01 0.37 0.04 0.25 0.23 0.21 0.19 0.23 0.31 0.33
0.06 0.12 0.02 0.01 0.09 0.33 0.26 0.27 0.05 0.29 0.22 0.16 0.04 0.02 0.03 0.05 0.07 0.03 0.03 0.04 0.01 0.00 0.01 0.01 0.02 0.05 0.07 0.08 0.07 0.05 0.05 0.05 0.05 0.05 0.06 0.06 0.10 0.17 0.36 0.14 0.07 0.14 0.14 0.02 0.01 0.03 0.00 0.01 0.02 0.00 0.00 0.00 0.00 0.00 0.00 0.00 0.00 0.00 0.00 0.00 0.00 0.00 0.00 0.01 0.02 0.01 0.00 0.00 0.00 0.01 0.01 0.00 0.01 0.00 0.00 0.00 0.01 0.01 0.02 0.05 0.09 0.18 0.38 0.49 0.19 0.11
0.11 0.20 0.13 0.07 0.08 0.21 0.11 0.07 0.08 0.03 0.09 0.05 0.07 0.05 0.01 0.02 0.01 0.02 0.02 0.02 0.01 0.00 0.01 0.00 0.00 0.00 0.00 0.01 0.01 0.02 0.01 0.01 0.01 0.00 0.01 0.17 0.36 0.56 0.20 0.27 0.39 0.30 0.11 0.12 0.15 0.16 0.03 0.01 0.02 0.01 0.00 0.01 0.00 0.00 0.00 0.00 0.00 0.00 0.00 0.00 0.00 0.00 0.00 0.01 0.01 0.01 0.01 0.00 0.01 0.01 0.00 0.00 0.01 0.08 0.01 0.01 0.01 0.02 0.03 0.02 0.20 0.02 0.02 0.08 0.28 0.28